User: anonymous   Login
Location: Unspecified
(0.0000°N, 0.0000°E)
Time: 03:52:53
(UTC+00:00)
Language:

Courier 1B Rocket - Orbit

View from above orbital plane
View from above orbital plane
View from above satellite
View from above satellite

Ground track
Ground track

The orbit data is extracted from the following two-line orbital elements,

1 00059U 60013B   14302.59408145  .00000161  00000-0  94761-4 0  9854
2 00059 028.2500 348.5039 0189266 294.7758 063.3205 13.52902835668219
Epoch (UTC): 29 October 2014 14:15:28
Eccentricity: 0.0189266
inclination: 28.2500°
perigee height: 921 km
apogee height: 1202 km
right ascension of ascending node: 348.5039°
argument of perigee: 294.7758°
revolutions per day: 13.52902835
mean anomaly at epoch: 63.3205°
orbit number at epoch: 66821

The dashed part of the orbit path shows where the satellite is in the earth's shadow,  

DLR